Guantanamo Bay NAS, Cuba

8:05 AM CDT on August 21, 2018 (GMT -0400)
Guantanamo Bay Naval Air Station

Weather History for MUGM - June, 2018

Change the Weather History Date:

Wednesday, June 13, 2018

  Actual Average Record
Temperature  
Mean Temperature 85 °F -  
Max Temperature 91 °F 87 °F 91 °F (2000)
Min Temperature 79 °F 75 °F 70 °F (2013)
Cooling Degree Days 20    
Growing Degree Days 35 (Base 50)    
Moisture  
Dew Point 78 °F    
Average Humidity 82    
Maximum Humidity 94    
Minimum Humidity 66    
Precipitation  
Precipitation 0.00 in - - ()
Sea Level Pressure  
Sea Level Pressure 30.04 in    
Wind  
Wind Speed 7 mph ()    
Max Wind Speed 16 mph    
Max Gust Speed -    
Visibility 6.2 miles    
Events      
Averages and records for this station are not official NWS values.
T = Trace of Precipitation, MM = Missing Value Source: Averaged Metar Reports

Daily Weather History Graph

Daily Weather History Graph

Search for Another Location

Airport or City:

Astronomy

Jun. 13, 2018 Rise Set
Actual Time 6:21 AM CDT 7:40 PM CDT
Civil Twilight 5:56 AM CDT 8:05 PM CDT
Nautical Twilight 5:27 AM CDT 8:34 PM CDT
Astronomical Twilight 4:57 AM CDT 9:04 PM CDT
Moon 6:10 AM CDT (6/13) 7:40 PM CDT (6/13)
Length of Visible Light 14h 08m
Length of Day
13h 19m
Waning Crescent, 0% of the Moon is Illuminated
Jun 13
Waning Crescent
Jun 13
New
Jun 20
First Quarter
Jun 28
Full
Jul 6
Last Quarter

Hourly Weather History & Observations

Time (CDT) Temp. Heat Index Dew Point Humidity Pressure Visibility Wind Dir Wind Speed Gust Speed Precip Events Conditions
12:56 AM 82.9 °F 93.8 °F 79.0 °F 88% 30.04 in 6.2 mi NE 5.8 mph - N/A   Scattered Clouds
1:56 AM 81.0 °F 88.6 °F 78.1 °F 91% 30.02 in 6.2 mi NNE 6.9 mph - N/A   Scattered Clouds
2:56 AM 80.1 °F 86.4 °F 78.1 °F 94% 30.01 in 6.2 mi NNW 4.6 mph - N/A   Scattered Clouds
3:56 AM 79.0 °F - 77.0 °F 94% 30.01 in 6.2 mi NW 4.6 mph - N/A   Scattered Clouds
4:56 AM 79.0 °F - 77.0 °F 94% 30.01 in 6.2 mi NNW 4.6 mph - N/A   Mostly Cloudy
5:56 AM 79.0 °F - 77.0 °F 94% 30.00 in 6.2 mi North 4.6 mph - N/A   Mostly Cloudy
6:56 AM 79.0 °F - 77.0 °F 94% 30.02 in 6.2 mi NNW 6.9 mph - N/A   Mostly Cloudy
7:56 AM 82.0 °F 91.0 °F 78.1 °F 88% 30.04 in 6.2 mi North 6.9 mph - N/A   Overcast
8:56 AM 84.9 °F 95.3 °F 77.0 °F 77% 30.05 in 6.2 mi North 8.1 mph - N/A   Mostly Cloudy
9:56 AM 87.1 °F 98.8 °F 77.0 °F 72% 30.07 in 6.2 mi NE 3.5 mph - N/A   Mostly Cloudy
10:56 AM 88.0 °F 103.1 °F 79.0 °F 75% 30.08 in 6.2 mi SE 10.4 mph - N/A   Mostly Cloudy
11:56 AM 89.1 °F 103.2 °F 78.1 °F 70% 30.08 in 6.2 mi SE 11.5 mph - N/A   Mostly Cloudy
12:56 PM 90.0 °F 105.8 °F 79.0 °F 70% 30.07 in 6.2 mi SE 13.8 mph - N/A   Mostly Cloudy
1:56 PM 91.9 °F 108.8 °F 79.0 °F 66% 30.06 in 6.2 mi SE 16.1 mph - N/A   Mostly Cloudy
2:56 PM 91.0 °F 107.6 °F 79.0 °F 68% 30.04 in 6.2 mi SE 13.8 mph - N/A   Mostly Cloudy
3:56 PM 90.0 °F 107.9 °F 80.1 °F 73% 30.04 in 6.2 mi SE 12.7 mph - N/A   Scattered Clouds
4:56 PM 89.1 °F 104.4 °F 79.0 °F 72% 30.02 in 6.2 mi SE 11.5 mph - N/A   Scattered Clouds
5:56 PM 88.0 °F 101.3 °F 78.1 °F 72% 30.02 in 6.2 mi SE 11.5 mph - N/A   Mostly Cloudy
6:56 PM 86.0 °F 98.3 °F 78.1 °F 77% 30.02 in 6.2 mi SE 10.4 mph - N/A   Mostly Cloudy
7:56 PM 84.9 °F 97.5 °F 79.0 °F 82% 30.02 in 6.2 mi SE 8.1 mph - N/A   Scattered Clouds
8:56 PM 84.9 °F 97.5 °F 79.0 °F 82% 30.04 in 6.2 mi ESE 9.2 mph - N/A   Scattered Clouds
9:56 PM 84.0 °F 98.1 °F 81.0 °F 90% 30.05 in 6.2 mi East 6.9 mph - N/A   Scattered Clouds
10:56 PM 84.0 °F 97.3 °F 80.1 °F 88% 30.06 in 6.2 mi East 4.6 mph - N/A   Scattered Clouds
11:56 PM 82.0 °F 91.0 °F 78.1 °F 88% 30.06 in 6.2 mi NNE 4.6 mph - N/A   Partly Cloudy